| time (UTC) | temp C | wind direction | speed KPH | gust KPH | rain 1hr cm | rain 24hr cm | rain mn cm | humidity % | barometer mb |
| 20260901220041 | 23 | 194 | 3.2 | 16.1 | 0.00 | 0.00 | 0.00 | 37 | 1007.6 |
| 20260901214528 | 23 | 14 | 0.0 | 6.4 | 0.00 | 0.00 | 0.00 | 39 | 1007.7 |
| 20260901213025 | 23 | 93 | 3.2 | 14.5 | 0.00 | 0.00 | 0.00 | 40 | 1007.8 |
| 20260901211526 | 23 | 284 | 1.6 | 8.0 | 0.00 | 0.00 | 0.00 | 40 | 1007.7 |
| 20260901210030 | 23 | 95 | 1.6 | 11.3 | 0.00 | 0.00 | 0.00 | 40 | 1007.7 |
| 20260901204522 | 23 | 228 | 1.6 | 6.4 | 0.00 | 0.00 | 0.00 | 40 | 1007.7 |
| 20260901203026 | 23 | 98 | 0.0 | 12.9 | 0.00 | 0.00 | 0.00 | 41 | 1007.7 |
| 20260901201516 | 22 | 221 | 4.8 | 19.3 | 0.00 | 0.00 | 0.00 | 40 | 1007.8 |
| 20260901200027 | 22 | 232 | 3.2 | 9.7 | 0.00 | 0.00 | 0.00 | 42 | 1007.9 |
| 20260901194510 | 22 | 149 | 0.0 | 9.7 | 0.00 | 0.00 | 0.00 | 45 | 1008.0 |
| 20260901193010 | 21 | 218 | 1.6 | 8.0 | 0.00 | 0.00 | 0.00 | 47 | 1008.2 |
| 20260901191518 | 21 | 217 | 0.0 | 8.0 | 0.00 | 0.00 | 0.00 | 51 | 1008.2 |
| 20260901190003 | 20 | 275 | 1.6 | 11.3 | 0.00 | 0.00 | 0.00 | 53 | 1008.3 |
| 20260901184502 | 20 | 338 | 0.0 | 8.0 | 0.00 | 0.00 | 0.00 | 56 | 1008.4 |
| 20260901183059 | 20 | 150 | 0.0 | 9.7 | 0.00 | 0.00 | 0.00 | 58 | 1008.5 |
| 20260901181614 | 18 | 46 | 1.6 | 6.4 | 0.00 | 0.00 | 0.00 | 59 | 1008.7 |
| 20260901180051 | 18 | 276 | 1.6 | 9.7 | 0.00 | 0.00 | 0.00 | 62 | 1008.7 |
| 20260901174547 | 17 | 9 | 1.6 | 8.0 | 0.00 | 0.00 | 0.00 | 65 | 1008.6 |
| 20260901173043 | 16 | 270 | 1.6 | 11.3 | 0.00 | 0.00 | 0.00 | 66 | 1008.5 |
| 20260901171541 | 16 | 236 | 1.6 | 6.4 | 0.00 | 0.00 | 0.00 | 70 | 1008.4 |
| 20260901170046 | 15 | 242 | 0.0 | 6.4 | 0.00 | 0.00 | 0.00 | 72 | 1008.3 |
| 20260901164533 | 15 | 246 | 0.0 | 8.0 | 0.00 | 0.00 | 0.00 | 75 | 1008.4 |
| 20260901163038 | 14 | 240 | 0.0 | 8.0 | 0.00 | 0.00 | 0.00 | 78 | 1008.3 |
| 20260901161529 | 13 | 238 | 0.0 | 4.8 | 0.00 | 0.00 | 0.00 | 81 | 1008.0 |
| 20260901160022 | 12 | 323 | 0.0 | 6.4 | 0.00 | 0.00 | 0.00 | 84 | 1007.8 |
| 20260901154520 | 12 | 333 | 0.0 | 8.0 | 0.00 | 0.00 | 0.00 | 85 | 1007.6 |
| 20260901153024 | 11 | 320 | 1.6 | 8.0 | 0.00 | 0.00 | 0.00 | 87 | 1007.6 |
| 20260901151533 | 11 | 221 | 0.0 | 4.8 | 0.00 | 0.00 | 0.00 | 87 | 1007.5 |
| 20260901150031 | 10 | 221 | 0.0 | 1.6 | 0.00 | 0.00 | 0.00 | 86 | 1007.3 |
| 20260901144517 | 10 | 221 | 0.0 | 0.0 | 0.00 | 0.00 | 0.00 | 85 | 1007.1 |
| 20260901143016 | 10 | 221 | 0.0 | 0.0 | 0.00 | 0.00 | 0.00 | 85 | 1007.0 |
| 20260901141512 | 10 | 221 | 0.0 | 3.2 | 0.00 | 0.00 | 0.00 | 85 | 1007.0 |
| 20260901140009 | 10 | 221 | 0.0 | 0.0 | 0.00 | 0.00 | 0.00 | 84 | 1006.8 |
| 20260901134508 | 11 | 221 | 0.0 | 3.2 | 0.00 | 0.00 | 0.00 | 85 | 1006.6 |
| 20260901133008 | 11 | 221 | 0.0 | 6.4 | 0.00 | 0.00 | 0.00 | 84 | 1006.5 |
| 20260901131510 | 11 | 242 | 0.0 | 6.4 | 0.00 | 0.00 | 0.00 | 85 | 1006.4 |
| 20260901130006 | 11 | 155 | 0.0 | 4.8 | 0.00 | 0.00 | 0.00 | 85 | 1006.6 |
| 20260901124505 | 10 | 219 | 0.0 | 4.8 | 0.00 | 0.00 | 0.00 | 85 | 1006.6 |
| 20260901123002 | 9 | 219 | 0.0 | 0.0 | 0.00 | 0.00 | 0.00 | 81 | 1006.3 |
| 20260901121606 | 10 | 219 | 0.0 | 0.0 | 0.00 | 0.00 | 0.00 | 81 | 1006.0 |
| 20260901120056 | 10 | 219 | 0.0 | 0.0 | 0.00 | 0.00 | 0.00 | 80 | 1005.7 |
| 20260901114554 | 10 | 219 | 0.0 | 0.0 | 0.00 | 0.00 | 0.00 | 79 | 1005.5 |
| 20260901113102 | 10 | 219 | 0.0 | 0.0 | 0.00 | 0.00 | 0.00 | 79 | 1005.4 |
| 20260901111552 | 10 | 219 | 0.0 | 0.0 | 0.00 | 0.00 | 0.00 | 79 | 1005.3 |
| 20260901110051 | 10 | 219 | 0.0 | 0.0 | 0.00 | 0.00 | 0.00 | 78 | 1005.1 |
| 20260901104547 | 10 | 219 | 0.0 | 0.0 | 0.00 | 0.00 | 0.00 | 78 | 1004.9 |
| 20260901103045 | 11 | 219 | 0.0 | 0.0 | 0.00 | 0.00 | 0.00 | 77 | 1005.0 |
| 20260901101559 | 11 | 219 | 0.0 | 0.0 | 0.00 | 0.00 | 0.00 | 77 | 1005.0 |
| 20260901100050 | 11 | 219 | 0.0 | 0.0 | 0.00 | 0.00 | 0.00 | 76 | 1005.1 |
| 20260901094544 | 11 | 219 | 0.0 | 0.0 | 0.00 | 0.00 | 0.00 | 75 | 1005.1 |
| 20260901093037 | 11 | 219 | 0.0 | 0.0 | 0.00 | 0.00 | 0.00 | 75 | 1005.1 |
| 20260901091551 | 12 | 219 | 0.0 | 0.0 | 0.00 | 0.00 | 0.00 | 75 | 1005.1 |
| 20260901090036 | 12 | 219 | 0.0 | 0.0 | 0.00 | 0.00 | 0.00 | 73 | 1005.2 |
| 20260901084538 | 12 | 219 | 0.0 | 0.0 | 0.00 | 0.00 | 0.00 | 72 | 1005.4 |
| 20260901083039 | 12 | 219 | 0.0 | 0.0 | 0.00 | 0.00 | 0.00 | 72 | 1005.6 |
| 20260901081528 | 12 | 219 | 0.0 | 0.0 | 0.00 | 0.00 | 0.00 | 71 | 1005.7 |
| 20260901074524 | 12 | 219 | 0.0 | 0.0 | 0.00 | 0.00 | 0.00 | 70 | 1005.5 |
| 20260901073023 | 13 | 219 | 0.0 | 0.0 | 0.00 | 0.00 | 0.00 | 69 | 1005.4 |
| 20260901071521 | 13 | 219 | 0.0 | 0.0 | 0.00 | 0.00 | 0.00 | 69 | 1005.4 |
| 20260901070028 | 13 | 219 | 0.0 | 0.0 | 0.00 | 0.00 | 0.00 | 68 | 1005.2 |
| 20260901064518 | 13 | 219 | 0.0 | 0.0 | 0.00 | 0.00 | 0.00 | 68 | 1005.3 |
| 20260901063018 | 13 | 219 | 0.0 | 0.0 | 0.00 | 0.00 | 0.00 | 67 | 1005.2 |
| 20260901061515 | 13 | 219 | 0.0 | 0.0 | 0.00 | 0.00 | 0.00 | 67 | 1005.0 |
| 20260901060011 | 13 | 219 | 0.0 | 0.0 | 0.00 | 0.00 | 0.00 | 66 | 1004.9 |
| 20260901054508 | 14 | 219 | 0.0 | 0.0 | 0.00 | 0.00 | 0.00 | 65 | 1004.9 |
| 20260901053006 | 15 | 219 | 0.0 | 0.0 | 0.00 | 0.00 | 0.00 | 64 | 1004.8 |
| 20260901051503 | 15 | 219 | 0.0 | 0.0 | 0.00 | 0.00 | 0.00 | 63 | 1005.0 |
| 20260901050100 | 15 | 219 | 0.0 | 0.0 | 0.00 | 0.00 | 0.00 | 62 | 1005.1 |
| 20260901044615 | 16 | 219 | 0.0 | 0.0 | 0.00 | 0.00 | 0.00 | 61 | 1004.9 |
| 20260901043053 | 16 | 219 | 0.0 | 0.0 | 0.00 | 0.00 | 0.00 | 59 | 1004.8 |
| 20260901041550 | 17 | 219 | 0.0 | 0.0 | 0.00 | 0.00 | 0.00 | 56 | 1004.6 |
| 20260901040057 | 17 | 219 | 0.0 | 0.0 | 0.00 | 0.00 | 0.00 | 54 | 1004.4 |
| 20260901034542 | 17 | 219 | 0.0 | 1.6 | 0.00 | 0.00 | 0.00 | 53 | 1004.2 |
| 20260901033039 | 18 | 219 | 0.0 | 0.0 | 0.00 | 0.00 | 0.00 | 52 | 1004.1 |
| 20260901031536 | 18 | 219 | 0.0 | 0.0 | 0.00 | 0.00 | 0.00 | 49 | 1004.0 |
| 20260901030034 | 20 | 219 | 0.0 | 1.6 | 0.00 | 0.00 | 0.00 | 47 | 1003.7 |
| 20260901024531 | 20 | 219 | 0.0 | 3.2 | 0.00 | 0.00 | 0.00 | 45 | 1003.6 |
| 20260901023021 | 21 | 219 | 1.6 | 3.2 | 0.00 | 0.00 | 0.00 | 42 | 1003.5 |
| 20260901021519 | 23 | 219 | 0.0 | 0.0 | 0.00 | 0.00 | 0.00 | 39 | 1003.4 |
| 20260901020013 | 24 | 219 | 0.0 | 3.2 | 0.00 | 0.00 | 0.00 | 37 | 1003.3 |
| 20260901014509 | 25 | 219 | 0.0 | 3.2 | 0.00 | 0.00 | 0.00 | 35 | 1003.4 |
| 20260901013007 | 25 | 194 | 1.6 | 9.7 | 0.00 | 0.00 | 0.00 | 33 | 1003.4 |
| 20260901011504 | 26 | 248 | 1.6 | 4.8 | 0.00 | 0.00 | 0.00 | 33 | 1003.4 |
| 20260901010059 | 26 | 288 | 0.0 | 3.2 | 0.00 | 0.00 | 0.00 | 31 | 1003.4 |
| 20260901004556 | 27 | 114 | 0.0 | 6.4 | 0.00 | 0.00 | 0.00 | 31 | 1003.3 |
| 20260901003054 | 28 | 178 | 0.0 | 6.4 | 0.00 | 0.00 | 0.00 | 31 | 1003.3 |
| 20260901001550 | 28 | 265 | 0.0 | 8.0 | 0.00 | 0.00 | 0.00 | 31 | 1003.5 |
| 20260831234558 | 28 | 282 | 0.0 | 6.4 | 0.00 | 0.00 | 0.00 | 31 | 1003.5 |
| 20260831233056 | 28 | 236 | 0.0 | 11.3 | 0.00 | 0.00 | 0.00 | 28 | 1003.6 |
| 20260831231604 | 28 | 159 | 0.0 | 4.8 | 0.00 | 0.00 | 0.00 | 27 | 1003.6 |
| 20260831230059 | 28 | 212 | 3.2 | 16.1 | 0.00 | 0.00 | 0.00 | 26 | 1003.7 |
| 20260831224621 | 28 | 165 | 4.8 | 11.3 | 0.00 | 0.00 | 0.00 | 28 | 1003.8 |
| 20260831223047 | 28 | 231 | 0.0 | 8.0 | 0.00 | 0.00 | 0.00 | 27 | 1003.9 |
| 20260831221552 | 28 | 340 | 1.6 | 8.0 | 0.00 | 0.00 | 0.00 | 29 | 1004.1 |